Track STARLINK-1147 now! 10-day predictions STARLINK-1147 is classified as:
1 45095U 20006BD 21018.71483735 .00000348 00000-0 42289-4 0 9995 2 45095 53.0580 28.1760 0001839 67.6446 292.4738 15.06389873 54277